Rochester, NY

1:50 AM EDT on May 30, 2017 (GMT -0400)
Greater Rochester International

Weather History for KROC - August, 2013

Change the Weather History Date:

Thursday, August 15, 2013

  Actual Average Record
Temperature  
Mean Temperature 63 °F 70 °F  
Max Temperature 76 °F 79 °F 96 °F (1959)
Min Temperature 49 °F 60 °F 47 °F (1964)
Degree Days  
Heating Degree Days 2 1  
Month to date heating degree days 9 5  
Since 1 June heating degree days 75 85  
Since 1 July heating degree days 17 17  
Cooling Degree Days 0 5  
Month to date cooling degree days 48 86  
Year to date cooling degree days 487 415  
Since 1 June cooling degree days 416 385  
Growing Degree Days 12 (Base 50)    
Moisture  
Dew Point 49 °F    
Average Humidity 66    
Maximum Humidity 93    
Minimum Humidity 38    
Precipitation  
Precipitation 0.00 in 0.12 in 1.06 in (1905)
Month to date precipitation 1.96 1.77  
Year to date precipitation 24.47 20.90  
Snow  
Snow 0.00 in 0.00 in 0.00 in ()
Month to date snowfall 0.0 0.0  
Since 1 June snowfall 0.0 0.0  
Since 1 July snowfall 0.0 0.0  
Snow Depth 0.00 in    
Sea Level Pressure  
Sea Level Pressure 30.12 in    
Wind  
Wind Speed 8 mph (WSW)    
Max Wind Speed 21 mph    
Max Gust Speed 26 mph    
Visibility 10 miles    
Events      
T = Trace of Precipitation, MM = Missing Value Source: NWS Daily Summary

Daily Weather History Graph

Daily Weather History Graph

Search for Another Location

Airport or City:

Trip Planner

Search our weather history database for the weather conditions in past years. The results will help you decide how hot, cold, wet, or windy it might be!

Date:

Astronomy

Aug. 15, 2013 Rise Set
Actual Time 6:16 AM EDT 8:12 PM EDT
Civil Twilight 5:45 AM EDT 8:43 PM EDT
Nautical Twilight 5:08 AM EDT 9:20 PM EDT
Astronomical Twilight 4:27 AM EDT 10:01 PM EDT
Moon 3:30 PM EDT (8/15) 12:21 AM EDT (8/15)
Length of Visible Light 14h 57m
Length of Day
13h 56m
Waxing Gibbous, 64% of the Moon is Illuminated
Aug 15
Waxing Gibbous
Aug 20
Full
Aug 28
Last Quarter
Sep 5
New
Sep 12
First Quarter

Hourly Weather History & Observations

Time (EDT) Temp. Dew Point Humidity Pressure Visibility Wind Dir Wind Speed Gust Speed Precip Events Conditions
12:54 AM 53.1 °F 48.0 °F 83% 30.11 in 10.0 mi WSW 5.8 mph - N/A   Partly Cloudy
1:54 AM 52.0 °F 48.0 °F 86% 30.10 in 10.0 mi WSW 5.8 mph - N/A   Scattered Clouds
2:54 AM 51.1 °F 48.0 °F 89% 30.10 in 10.0 mi SW 4.6 mph - N/A   Partly Cloudy
3:54 AM 50.0 °F 48.0 °F 93% 30.11 in 10.0 mi SW 3.5 mph - N/A   Clear
4:54 AM 50.0 °F 46.9 °F 89% 30.11 in 10.0 mi SW 4.6 mph - N/A   Clear
5:54 AM 48.9 °F 46.0 °F 90% 30.13 in 10.0 mi WSW 4.6 mph - N/A   Scattered Clouds
6:54 AM 51.1 °F 48.0 °F 89% 30.14 in 10.0 mi WSW 4.6 mph - N/A   Scattered Clouds
7:54 AM 55.0 °F 50.0 °F 83% 30.15 in 10.0 mi WSW 5.8 mph - N/A   Scattered Clouds
8:54 AM 62.1 °F 52.0 °F 70% 30.15 in 10.0 mi WSW 6.9 mph - N/A   Partly Cloudy
9:54 AM 66.0 °F 52.0 °F 60% 30.15 in 10.0 mi SW 10.4 mph - N/A   Partly Cloudy
10:54 AM 69.1 °F 52.0 °F 54% 30.14 in 10.0 mi West 11.5 mph 16.1 mph N/A   Partly Cloudy
11:54 AM 70.0 °F 51.1 °F 51% 30.13 in 10.0 mi West 9.2 mph - N/A   Partly Cloudy
12:54 PM 73.9 °F 50.0 °F 43% 30.12 in 10.0 mi West 18.4 mph 23.0 mph N/A   Scattered Clouds
1:54 PM 71.1 °F 50.0 °F 47% 30.11 in 10.0 mi West 12.7 mph - N/A   Scattered Clouds
2:54 PM 73.0 °F 50.0 °F 44% 30.10 in 10.0 mi West 9.2 mph - N/A   Scattered Clouds
3:54 PM 75.0 °F 48.9 °F 40% 30.09 in 10.0 mi West 15.0 mph 25.3 mph N/A   Scattered Clouds
4:54 PM 73.9 °F 48.9 °F 41% 30.09 in 10.0 mi West 13.8 mph 20.7 mph N/A   Mostly Cloudy
5:54 PM 73.0 °F 48.0 °F 41% 30.09 in 10.0 mi WSW 15.0 mph 20.7 mph N/A   Mostly Cloudy
6:54 PM 71.1 °F 48.9 °F 45% 30.09 in 10.0 mi West 12.7 mph - N/A   Scattered Clouds
7:54 PM 68.0 °F 48.9 °F 50% 30.11 in 10.0 mi West 6.9 mph - N/A   Scattered Clouds
8:54 PM 62.1 °F 51.1 °F 67% 30.12 in 10.0 mi SW 6.9 mph - N/A   Partly Cloudy
9:54 PM 60.1 °F 51.1 °F 72% 30.14 in 10.0 mi WSW 6.9 mph - N/A   Partly Cloudy
10:54 PM 59.0 °F 52.0 °F 78% 30.14 in 10.0 mi SW 6.9 mph - N/A   Scattered Clouds
11:54 PM 57.0 °F 52.0 °F 83% 30.14 in 10.0 mi SW 5.8 mph - N/A   Partly Cloudy